Weather in Sunyani

Ghana     7°20′41″N   2°19′13″W
temp.,
°C
wind,
m/s
gust,
m/s
humid.,
%
clouds,
%
prec.,
mm/h
press.,
hPa
HPBL,
m
13 april, tue
tue1300:00+22s289598 2.4 1011200
03:00+22sw2795100 0.0 1010221
06:00+22ssw169981 0.0 1011177
09:00+28ssw247256 0.0 1013596
12:00+35ssw2343100 0.0 10111709
15:00+36sw133688 0.0 10072020
18:00+28wnw2465100 0.3 1009214
21:00+22s2696100 2.4 1014219
14 april, wed
wed1400:00+22s2994100 2.4 1012297
03:00+22ssw21094100 0.0 1010395
06:00+22ssw2896100 0.0 1011317
09:00+28ssw3570100 0.0 1014876
12:00+33sw334636 0.0 10111639
15:00+36ssw1436100 0.0 10072804
18:00+27nnw267478 2.1 1008230
21:00+23sse2488100 2.6 101286
15 april, thu
thu1500:00+22ssw2691100 2.6 1011156
03:00+23s2992100 0.0 1009347
06:00+22sw279757 0.0 1011274
09:00+28sw2566100 0.0 1012844
12:00+33sw234562 0.0 10101416
15:00+35sw1337100 0.0 10062418
18:00+30ssw1155100 0.0 100717
21:00+24sse259199 2.0 1011177
16 april, fri
fri1600:00+23s2795100 2.2 1010226
03:00+23ssw2796100 0.0 1008249
06:00+23sw159799 0.0 1010193
09:00+28sw257099 0.0 1011740
12:00+33sw3346100 0.0 10091517
15:00+35wsw2339100 0.0 10062319
18:00+24wsw2695100 6.9 1007151
21:00+25s31092100 1.2 1009287
17 april, sat
sat1700:00+23s129665 2.1 101092
03:00+23ssw289736 0.4 1008324
06:00+23ssw2997100 0.4 1010458
09:00+27sw367763 0.1 1012908
12:00+32sw335294 0.1 10101737
15:00+30wsw256299 0.1 1007544
18:00+26ssw268194 3.0 1007107
21:00+24sw1393100 3.3 101174